When you browse on this site, cookies collect data to enhance your experience and personalize the content and advertising you see.
Visit our Privacy Policy to learn more. By continuing to use the site, you agree to this use of cookies and data.
  • In Österreich
  • Länderverzeichnis
  • Für 7 Tage
  • Wassertemperatur
  • Satellitenkarten
  • Wetterkarte
  • News
  • Widgets
  • user-avatar
    Anmelden

    Stündliche Wetter Grabovo

    Heute, 22 Mai, Mittwoch

    Zeit Temperatur Niederschläge Wind Luftdruck Luftfeuchtigkeit
    00:00 +15°C° 0 mm 2 m/S 744 mmHg 97%
    01:00 +14°C° 0 mm 2 m/S 744 mmHg 97%
    02:00 +14°C° 0 mm 2 m/S 744 mmHg 97%
    03:00 +14°C° 0 mm 2 m/S 744 mmHg 97%
    04:00 +13°C° 0 mm 2 m/S 744 mmHg 97%
    05:00 +13°C° 0 mm 2 m/S 744 mmHg 97%
    06:00 +15°C° 0 mm 2 m/S 744 mmHg 90%
    07:00 +16°C° 0 mm 1 m/S 744 mmHg 83%
    08:00 +19°C° 0 mm 1 m/S 744 mmHg 76%
    09:00 +19°C° 0 mm 2 m/S 744 mmHg 67%
    10:00 +21°C° 0 mm 2 m/S 744 mmHg 58%
    11:00 +24°C° 0 mm 2 m/S 744 mmHg 49%
    12:00 +24°C° 0 mm 1 m/S 744 mmHg 48%
    13:00 +24°C° 0 mm 1 m/S 744 mmHg 47%
    14:00 +24°C° 0 mm 1 m/S 744 mmHg 46%
    15:00 +24°C° 0 mm 1 m/S 743 mmHg 47%
    16:00 +24°C° 0 mm 1 m/S 743 mmHg 47%
    17:00 +24°C° 0 mm 1 m/S 743 mmHg 48%
    18:00 +22°C° 0 mm 1 m/S 743 mmHg 56%
    19:00 +20°C° 0 mm 1 m/S 743 mmHg 63%
    20:00 +19°C° 0 mm 1 m/S 743 mmHg 71%
    21:00 +18°C° 0 mm 1 m/S 743 mmHg 75%
    22:00 +16°C° 0 mm 1 m/S 743 mmHg 79%
    23:00 +15°C° 0 mm 1 m/S 743 mmHg 83%

    Morgen, 23 Mai, Donnerstag

    Zeit Temperatur Niederschläge Wind Luftdruck Luftfeuchtigkeit
    00:00 +15°C° 0 mm 1 m/S 743 mmHg 84%
    01:00 +14°C° 0 mm 1 m/S 743 mmHg 85%
    02:00 +13°C° 0 mm 0 m/S 743 mmHg 86%
    03:00 +14°C° 0 mm 1 m/S 743 mmHg 87%
    04:00 +14°C° 0 mm 1 m/S 743 mmHg 87%
    05:00 +14°C° 0 mm 1 m/S 743 mmHg 88%
    06:00 +16°C° 0 mm 1 m/S 743 mmHg 80%
    07:00 +19°C° 0 mm 1 m/S 744 mmHg 73%
    08:00 +21°C° 0 mm 1 m/S 744 mmHg 65%
    09:00 +23°C° 0 mm 1 m/S 744 mmHg 59%
    10:00 +25°C° 0 mm 1 m/S 744 mmHg 53%
    11:00 +26°C° 0 mm 1 m/S 744 mmHg 47%
    12:00 +27°C° 0 mm 1 m/S 743 mmHg 45%
    13:00 +27°C° 0 mm 1 m/S 743 mmHg 44%
    14:00 +27°C° 0 mm 2 m/S 743 mmHg 42%
    15:00 +26°C° 0 mm 2 m/S 743 mmHg 44%
    16:00 +26°C° 0 mm 1 m/S 743 mmHg 47%
    17:00 +26°C° 0 mm 1 m/S 743 mmHg 49%
    18:00 +24°C° 0 mm 1 m/S 743 mmHg 56%
    19:00 +22°C° 0 mm 1 m/S 743 mmHg 64%
    20:00 +20°C° 0 mm 1 m/S 743 mmHg 71%
    21:00 +19°C° 0 mm 1 m/S 743 mmHg 75%
    22:00 +19°C° 0 mm 1 m/S 743 mmHg 78%
    23:00 +18°C° 0 mm 1 m/S 743 mmHg 82%

    übermorgen, 24 Mai, Freitag

    Zeit Temperatur Niederschläge Wind Luftdruck Luftfeuchtigkeit
    00:00 +16°C° 0 mm 1 m/S 743 mmHg 84%
    01:00 +16°C° 0 mm 1 m/S 743 mmHg 86%
    02:00 +15°C° 0 mm 1 m/S 743 mmHg 89%
    03:00 +15°C° 0 mm 1 m/S 743 mmHg 89%
    04:00 +15°C° 0 mm 1 m/S 744 mmHg 90%
    05:00 +15°C° 0 mm 1 m/S 744 mmHg 90%
    06:00 +18°C° 0 mm 1 m/S 744 mmHg 82%
    07:00 +20°C° 0 mm 1 m/S 744 mmHg 75%
    08:00 +23°C° 0 mm 1 m/S 744 mmHg 67%
    09:00 +24°C° 0.1 mm 1 m/S 744 mmHg 62%
    10:00 +25°C° 0.1 mm 2 m/S 744 mmHg 57%
    11:00 +26°C° 0.1 mm 2 m/S 744 mmHg 52%
    12:00 +26°C° 0.6 mm 2 m/S 744 mmHg 56%
    13:00 +25°C° 0.6 mm 2 m/S 744 mmHg 59%
    14:00 +25°C° 0.6 mm 3 m/S 743 mmHg 62%
    15:00 +24°C° 0.8 mm 2 m/S 743 mmHg 67%
    16:00 +24°C° 0.8 mm 2 m/S 743 mmHg 71%
    17:00 +23°C° 0.8 mm 2 m/S 743 mmHg 76%
    18:00 +21°C° 0.4 mm 2 m/S 743 mmHg 81%
    19:00 +19°C° 0.4 mm 2 m/S 743 mmHg 86%
    20:00 +18°C° 0.4 mm 2 m/S 743 mmHg 91%
    21:00 +17°C° 0 mm 2 m/S 743 mmHg 92%
    22:00 +16°C° 0 mm 2 m/S 743 mmHg 93%
    23:00 +15°C° 0 mm 2 m/S 743 mmHg 94%

    25 Mai, Samstag

    Zeit Temperatur Niederschläge Wind Luftdruck Luftfeuchtigkeit
    00:00 +15°C° 0 mm 2 m/S 743 mmHg 95%
    01:00 +15°C° 0 mm 2 m/S 743 mmHg 97%
    02:00 +14°C° 0 mm 2 m/S 742 mmHg 98%
    03:00 +14°C° 0.3 mm 2 m/S 742 mmHg 97%
    04:00 +13°C° 0.3 mm 3 m/S 743 mmHg 96%
    05:00 +13°C° 0.3 mm 3 m/S 743 mmHg 96%
    06:00 +14°C° 0.2 mm 3 m/S 743 mmHg 92%
    07:00 +14°C° 0.2 mm 4 m/S 743 mmHg 89%
    08:00 +15°C° 0.2 mm 4 m/S 743 mmHg 85%
    09:00 +17°C° 0 mm 4 m/S 743 mmHg 73%
    10:00 +19°C° 0 mm 5 m/S 743 mmHg 60%
    11:00 +20°C° 0 mm 5 m/S 743 mmHg 48%
    12:00 +21°C° 0 mm 5 m/S 743 mmHg 45%
    13:00 +21°C° 0 mm 5 m/S 743 mmHg 42%
    14:00 +22°C° 0 mm 4 m/S 743 mmHg 39%
    15:00 +22°C° 0 mm 4 m/S 743 mmHg 42%
    16:00 +22°C° 0 mm 4 m/S 742 mmHg 45%
    17:00 +21°C° 0 mm 3 m/S 742 mmHg 48%
    18:00 +20°C° 0.1 mm 3 m/S 742 mmHg 59%
    19:00 +18°C° 0.1 mm 2 m/S 742 mmHg 70%
    20:00 +16°C° 0.1 mm 2 m/S 742 mmHg 82%
    21:00 +15°C° 0 mm 2 m/S 742 mmHg 86%
    22:00 +14°C° 0 mm 2 m/S 743 mmHg 90%
    23:00 +14°C° 0 mm 2 m/S 743 mmHg 93%

    26 Mai, Sonntag

    Zeit Temperatur Niederschläge Wind Luftdruck Luftfeuchtigkeit
    00:00 +13°C° 0 mm 2 m/S 743 mmHg 94%
    01:00 +11°C° 0 mm 3 m/S 743 mmHg 95%
    02:00 +11°C° 0 mm 3 m/S 743 mmHg 96%
    03:00 +10°C° 0 mm 2 m/S 743 mmHg 95%
    04:00 +10°C° 0 mm 2 m/S 743 mmHg 94%
    05:00 +10°C° 0 mm 2 m/S 744 mmHg 93%
    06:00 +10°C° 0 mm 2 m/S 744 mmHg 89%
    07:00 +12°C° 0 mm 2 m/S 744 mmHg 86%
    08:00 +13°C° 0 mm 2 m/S 744 mmHg 82%
    09:00 +13°C° 0.1 mm 3 m/S 744 mmHg 77%
    10:00 +14°C° 0.1 mm 4 m/S 743 mmHg 72%
    11:00 +15°C° 0.1 mm 4 m/S 743 mmHg 67%
    12:00 +15°C° 0.1 mm 4 m/S 743 mmHg 68%
    13:00 +14°C° 0.1 mm 4 m/S 743 mmHg 69%
    14:00 +14°C° 0.1 mm 4 m/S 742 mmHg 70%
    15:00 +15°C° 0.1 mm 4 m/S 742 mmHg 70%
    16:00 +15°C° 0.1 mm 4 m/S 742 mmHg 70%
    17:00 +15°C° 0.1 mm 5 m/S 742 mmHg 70%
    18:00 +14°C° 0.1 mm 4 m/S 742 mmHg 73%
    19:00 +13°C° 0.1 mm 4 m/S 742 mmHg 76%
    20:00 +12°C° 0.1 mm 4 m/S 742 mmHg 79%
    21:00 +12°C° 0 mm 4 m/S 742 mmHg 80%
    22:00 +11°C° 0 mm 4 m/S 742 mmHg 82%
    23:00 +11°C° 0 mm 3 m/S 742 mmHg 83%

    27 Mai, Montag

    Zeit Temperatur Niederschläge Wind Luftdruck Luftfeuchtigkeit
    00:00 +11°C° 0 mm 4 m/S 742 mmHg 83%
    01:00 +10°C° 0 mm 4 m/S 742 mmHg 83%
    02:00 +10°C° 0 mm 4 m/S 743 mmHg 82%
    03:00 +10°C° 0.1 mm 4 m/S 743 mmHg 84%
    04:00 +8°C° 0.1 mm 4 m/S 743 mmHg 85%
    05:00 +8°C° 0.1 mm 4 m/S 743 mmHg 86%
    06:00 +9°C° 0 mm 5 m/S 743 mmHg 77%
    07:00 +9°C° 0 mm 5 m/S 744 mmHg 69%
    08:00 +10°C° 0 mm 6 m/S 744 mmHg 60%
    09:00 +11°C° 0 mm 6 m/S 744 mmHg 57%
    10:00 +14°C° 0 mm 6 m/S 744 mmHg 53%
    11:00 +15°C° 0 mm 5 m/S 745 mmHg 50%
    12:00 +16°C° 0 mm 5 m/S 745 mmHg 49%
    13:00 +17°C° 0 mm 6 m/S 745 mmHg 49%
    14:00 +17°C° 0 mm 6 m/S 745 mmHg 48%
    15:00 +17°C° 0 mm 5 m/S 745 mmHg 49%
    16:00 +17°C° 0 mm 5 m/S 745 mmHg 50%
    17:00 +18°C° 0 mm 4 m/S 745 mmHg 51%
    18:00 +17°C° 0 mm 4 m/S 745 mmHg 58%
    19:00 +16°C° 0 mm 3 m/S 745 mmHg 65%
    20:00 +14°C° 0 mm 2 m/S 745 mmHg 72%
    21:00 +14°C° 0 mm 2 m/S 745 mmHg 74%
    22:00 +13°C° 0 mm 2 m/S 745 mmHg 76%
    23:00 +12°C° 0 mm 3 m/S 745 mmHg 78%
    Mehr zeigen